Retour au catalogue

STARLINK-33707

ActifCommunicationsVLEO
NORAD 63401·PAYLOAD·🇺🇸 United States

Lancé Mar 31, 2025 depuis Cape Canaveral Space Force Station

Loading…

Prochains Passages (prochaines 24 heures)

TLE

FraisSource: CelesTrak SupGP

Époque: Sep 14, 2026, 15:27 UTC

1 63401C 25065C   26257.64423611  .00013813  00000+0  50034-3 0  2578
2 63401  43.0021 119.8421 0001477 259.6243 314.5401 15.27569352    16

Suivez STARLINK-33707 en temps réel avec AllMySat

Download on the App Store